Tracking 25710 objects as of 6-Jul-2022
HD Live streaming from Space Station
objects crossing your sky now

COSMOS 970 DEB

Track COSMOS 970 DEB now!
10-day predictions


NORAD ID: 10883
Int'l Code: 1977-121AE
Perigee: 911.1 km
Apogee: 1,074.1 km
Inclination: 65.8 °
Period: 104.8 minutes
Semi major axis: 7363 km
RCS: 0.0133 m2 (small)
Launch date: December 21, 1977
Source: Commonwealth of Independent States (former USSR) (CIS)
Launch site: TYURATAM MISSILE AND SPACE COMPLEX (TTMTR)

Note: This is SATELLITE DEBRIS
aabbcc
Your satellite tracking list
Your tracking list is empty




NASA's NSSDC Master Catalog

Two Line Element Set (TLE):
1 10883U 77121AE  22187.44559562  .00000155  00000-0  23980-3 0  9994
2 10883  65.8408 189.8562 0110695  88.1222  62.1667 13.73947879224078
Source of the keplerian elements: AFSPC